| time (UTC) | temp F | wind direction | speed knots | gust knots | rain 1hr in | rain 24hr in | rain mn in | humidity % | barometer mb |
| 20260502130704 | 88 | 213 | 7.8 | 11.3 | 0.00 | 0.00 | 0.00 | 61 | 1010.0 |
| 20260502130204 | 87 | 225 | 6.1 | 11.3 | 0.00 | 0.00 | 0.00 | 63 | 1010.0 |
| 20260502123704 | 81 | 216 | 6.1 | 8.7 | 0.00 | 0.00 | 0.00 | 74 | 1010.0 |
| 20260502123204 | 81 | 207 | 5.2 | 8.7 | 0.00 | 0.00 | 0.00 | 74 | 1010.0 |
| 20260502121704 | 79 | 217 | 5.2 | 7.0 | 0.00 | 0.00 | 0.00 | 78 | 1010.0 |
| 20260502121204 | 78 | 190 | 4.3 | 5.2 | 0.00 | 0.00 | 0.00 | 81 | 1010.0 |
| 20260502120705 | 77 | 212 | 2.6 | 4.3 | 0.00 | 0.00 | 0.00 | 82 | 1010.0 |
| 20260502120204 | 77 | 217 | 3.5 | 6.1 | 0.00 | 0.00 | 0.00 | 82 | 1010.0 |
| 20260502114703 | 75 | 229 | 2.6 | 5.2 | 0.00 | 0.00 | 0.00 | 85 | 1010.0 |
| 20260502114204 | 74 | 237 | 1.7 | 2.6 | 0.00 | 0.00 | 0.00 | 86 | 1010.0 |
| 20260502113704 | 74 | 229 | 1.7 | 2.6 | 0.00 | 0.00 | 0.00 | 86 | 1010.0 |
| 20260502113204 | 74 | 234 | 2.6 | 4.3 | 0.00 | 0.00 | 0.00 | 86 | 1010.0 |
| 20260502111703 | 73 | 237 | 1.7 | 2.6 | 0.00 | 0.00 | 0.00 | 89 | 1010.0 |
| 20260502111204 | 72 | 224 | 2.6 | 5.2 | 0.00 | 0.00 | 0.00 | 89 | 1010.0 |
| 20260502110704 | 71 | 236 | 1.7 | 2.6 | 0.00 | 0.00 | 0.00 | 90 | 1010.0 |
| 20260502110204 | 71 | 231 | 2.6 | 5.2 | 0.00 | 0.00 | 0.00 | 90 | 1010.0 |
| 20260502104704 | 71 | 231 | 2.6 | 2.6 | 0.00 | 0.00 | 0.00 | 90 | 1010.0 |
| 20260502104204 | 71 | 232 | 0.9 | 5.2 | 0.00 | 0.00 | 0.00 | 90 | 1010.0 |
| 20260502101704 | 71 | 231 | 2.6 | 5.2 | 0.00 | 0.00 | 0.00 | 91 | 1010.0 |
| 20260502101204 | 71 | 233 | 1.7 | 4.3 | 0.00 | 0.00 | 0.00 | 91 | 1010.0 |
| 20260502100705 | 71 | 231 | 1.7 | 2.6 | 0.00 | 0.00 | 0.00 | 92 | 1010.0 |
| 20260502100204 | 71 | 247 | 2.6 | 5.2 | 0.00 | 0.00 | 0.00 | 92 | 1010.0 |
| 20260502091204 | 72 | 234 | 4.3 | 5.2 | 0.00 | 0.00 | 0.00 | 91 | 1010.0 |
| 20260502090705 | 72 | 213 | 2.6 | 5.2 | 0.00 | 0.00 | 0.00 | 90 | 1010.0 |
| 20260502090204 | 72 | 197 | 2.6 | 5.2 | 0.00 | 0.00 | 0.00 | 90 | 1010.0 |
| 20260502071204 | 74 | 234 | 5.2 | 7.0 | 0.00 | 0.00 | 0.00 | 89 | 1010.0 |
| 20260502070704 | 74 | 232 | 5.2 | 7.0 | 0.00 | 0.00 | 0.00 | 89 | 1010.0 |
| 20260502070205 | 75 | 219 | 4.3 | 6.1 | 0.00 | 0.00 | 0.00 | 89 | 1010.0 |
| 20260502064703 | 75 | 224 | 3.5 | 5.2 | 0.00 | 0.00 | 0.00 | 89 | 1010.0 |
| 20260502063703 | 75 | 239 | 4.3 | 5.2 | 0.00 | 0.00 | 0.00 | 88 | 1010.0 |
| 20260502063203 | 75 | 231 | 3.5 | 5.2 | 0.00 | 0.00 | 0.00 | 87 | 1010.0 |
| 20260502061704 | 75 | 227 | 1.7 | 4.3 | 0.00 | 0.00 | 0.00 | 87 | 1010.0 |
| 20260502061204 | 75 | 226 | 2.6 | 2.6 | 0.00 | 0.00 | 0.00 | 86 | 1010.0 |
| 20260502060704 | 75 | 219 | 2.6 | 2.6 | 0.00 | 0.00 | 0.00 | 86 | 1010.0 |
| 20260502060204 | 75 | 241 | 2.6 | 4.3 | 0.00 | 0.00 | 0.00 | 86 | 1010.0 |
| 20260502054704 | 76 | 232 | 0.0 | 2.6 | 0.00 | 0.00 | 0.00 | 85 | 1010.0 |
| 20260502054204 | 76 | 237 | 0.9 | 2.6 | 0.00 | 0.00 | 0.00 | 85 | 1010.0 |
| 20260502053704 | 76 | 238 | 0.9 | 2.6 | 0.00 | 0.00 | 0.00 | 85 | 1010.0 |
| 20260502053205 | 76 | 230 | 0.9 | 2.6 | 0.00 | 0.00 | 0.00 | 85 | 1010.0 |
| 20260502051704 | 76 | 234 | 1.7 | 2.6 | 0.00 | 0.00 | 0.00 | 84 | 1010.0 |
| 20260502051204 | 76 | 243 | 1.7 | 2.6 | 0.00 | 0.00 | 0.00 | 83 | 1010.0 |
| 20260502050704 | 77 | 265 | 2.6 | 4.3 | 0.00 | 0.00 | 0.00 | 83 | 1010.0 |
| 20260502050204 | 77 | 258 | 2.6 | 4.3 | 0.00 | 0.00 | 0.00 | 83 | 1010.0 |
| 20260502044704 | 77 | 228 | 2.6 | 4.3 | 0.00 | 0.00 | 0.00 | 81 | 1010.0 |
| 20260502044204 | 77 | 228 | 2.6 | 5.2 | 0.00 | 0.00 | 0.00 | 81 | 1010.0 |
| 20260502043703 | 77 | 221 | 2.6 | 2.6 | 0.00 | 0.00 | 0.00 | 81 | 1010.0 |
| 20260502043204 | 77 | 220 | 2.6 | 5.2 | 0.00 | 0.00 | 0.00 | 81 | 1010.0 |
| 20260502041705 | 78 | 228 | 4.3 | 5.2 | 0.00 | 0.00 | 0.00 | 80 | 1010.0 |
| 20260502041204 | 78 | 234 | 2.6 | 5.2 | 0.00 | 0.00 | 0.00 | 80 | 1010.0 |
| 20260502040704 | 78 | 228 | 4.3 | 5.2 | 0.00 | 0.00 | 0.00 | 80 | 1010.0 |
| 20260502040204 | 78 | 219 | 2.6 | 5.2 | 0.00 | 0.00 | 0.00 | 79 | 1010.0 |
| 20260502034204 | 78 | 217 | 4.3 | 7.0 | 0.00 | 0.00 | 0.00 | 79 | 1010.0 |
| 20260502033704 | 79 | 221 | 4.3 | 5.2 | 0.00 | 0.00 | 0.00 | 79 | 1010.0 |
| 20260502033204 | 79 | 214 | 5.2 | 7.0 | 0.00 | 0.00 | 0.00 | 79 | 1010.0 |
| 20260502031704 | 79 | 198 | 4.3 | 6.1 | 0.00 | 0.00 | 0.00 | 78 | 1010.0 |
| 20260502030204 | 79 | 219 | 5.2 | 7.8 | 0.00 | 0.00 | 0.00 | 77 | 1010.0 |
| 20260502024205 | 80 | 185 | 5.2 | 7.0 | 0.00 | 0.00 | 0.00 | 76 | 1010.0 |
| 20260502023703 | 80 | 171 | 5.2 | 7.8 | 0.00 | 0.00 | 0.00 | 76 | 1010.0 |
| 20260502023205 | 80 | 186 | 5.2 | 8.7 | 0.00 | 0.00 | 0.00 | 75 | 1010.0 |
| 20260502021704 | 80 | 154 | 5.2 | 7.0 | 0.00 | 0.00 | 0.00 | 74 | 1010.0 |
| 20260502021204 | 80 | 200 | 4.3 | 7.0 | 0.00 | 0.00 | 0.00 | 73 | 1010.0 |
| 20260502020706 | 80 | 163 | 5.2 | 7.8 | 0.00 | 0.00 | 0.00 | 73 | 1010.0 |
| 20260502020204 | 80 | 193 | 5.2 | 7.8 | 0.00 | 0.00 | 0.00 | 73 | 1010.0 |
| 20260502014704 | 81 | 170 | 4.3 | 6.1 | 0.00 | 0.00 | 0.00 | 73 | 1010.0 |
| 20260502014204 | 81 | 168 | 4.3 | 7.0 | 0.00 | 0.00 | 0.00 | 73 | 1010.0 |
| 20260502013703 | 81 | 184 | 3.5 | 5.2 | 0.00 | 0.00 | 0.00 | 72 | 1010.0 |
| 20260502013204 | 81 | 172 | 4.3 | 7.8 | 0.00 | 0.00 | 0.00 | 72 | 1010.0 |
| 20260502011704 | 81 | 181 | 5.2 | 7.8 | 0.00 | 0.00 | 0.00 | 71 | 1009.0 |
| 20260502011204 | 82 | 173 | 5.2 | 7.0 | 0.00 | 0.00 | 0.00 | 71 | 1009.0 |
| 20260502010704 | 82 | 156 | 5.2 | 7.0 | 0.00 | 0.00 | 0.00 | 70 | 1009.0 |
| 20260502010204 | 82 | 169 | 5.2 | 8.7 | 0.00 | 0.00 | 0.00 | 70 | 1009.0 |
| 20260502004704 | 82 | 167 | 5.2 | 8.7 | 0.00 | 0.00 | 0.00 | 68 | 1009.0 |
| 20260502004204 | 83 | 170 | 5.2 | 8.7 | 0.00 | 0.00 | 0.00 | 68 | 1009.0 |
| 20260502003704 | 83 | 176 | 5.2 | 7.8 | 0.00 | 0.00 | 0.00 | 68 | 1009.0 |
| 20260502003205 | 83 | 184 | 5.2 | 11.3 | 0.00 | 0.00 | 0.00 | 68 | 1009.0 |
| 20260502001704 | 84 | 158 | 6.1 | 8.7 | 0.00 | 0.00 | 0.00 | 65 | 1008.0 |
| 20260502001204 | 84 | 163 | 4.3 | 8.7 | 0.00 | 0.00 | 0.00 | 64 | 1008.0 |
| 20260502000204 | 85 | 155 | 5.2 | 10.4 | 0.00 | 0.00 | 0.00 | 61 | 1008.0 |
| 20260501234704 | 87 | 155 | 5.2 | 7.0 | 0.00 | 0.00 | 0.00 | 59 | 1008.0 |
| 20260501234203 | 88 | 143 | 5.2 | 7.0 | 0.00 | 0.00 | 0.00 | 57 | 1008.0 |
| 20260501233704 | 89 | 131 | 5.2 | 7.0 | 0.00 | 0.00 | 0.00 | 54 | 1008.0 |
| 20260501233203 | 90 | 158 | 3.5 | 5.2 | 0.00 | 0.00 | 0.00 | 46 | 1008.0 |
| 20260501231704 | 90 | 232 | 5.2 | 7.0 | 0.00 | 0.00 | 0.00 | 46 | 1008.0 |
| 20260501231204 | 90 | 230 | 6.1 | 7.8 | 0.00 | 0.00 | 0.00 | 45 | 1008.0 |
| 20260501230704 | 90 | 243 | 4.3 | 7.8 | 0.00 | 0.00 | 0.00 | 44 | 1008.0 |
| 20260501230204 | 90 | 208 | 4.3 | 8.7 | 0.00 | 0.00 | 0.00 | 44 | 1008.0 |
| 20260501224704 | 92 | 217 | 6.1 | 7.0 | 0.00 | 0.00 | 0.00 | 42 | 1008.0 |
| 20260501224204 | 92 | 240 | 6.1 | 7.0 | 0.00 | 0.00 | 0.00 | 42 | 1008.0 |
| 20260501223704 | 93 | 227 | 7.0 | 10.4 | 0.00 | 0.00 | 0.00 | 41 | 1008.0 |
| 20260501223205 | 93 | 228 | 8.7 | 11.3 | 0.00 | 0.00 | 0.00 | 41 | 1008.0 |
| 20260501221704 | 94 | 237 | 7.8 | 8.7 | 0.00 | 0.00 | 0.00 | 40 | 1007.0 |
| 20260501221203 | 94 | 248 | 7.0 | 11.3 | 0.00 | 0.00 | 0.00 | 40 | 1008.0 |
| 20260501220705 | 94 | 247 | 6.1 | 8.7 | 0.00 | 0.00 | 0.00 | 40 | 1008.0 |
| 20260501220204 | 95 | 245 | 6.1 | 11.3 | 0.00 | 0.00 | 0.00 | 40 | 1008.0 |
| 20260501214204 | 95 | 224 | 4.3 | 10.4 | 0.00 | 0.00 | 0.00 | 39 | 1008.0 |
| 20260501213704 | 95 | 256 | 7.8 | 11.3 | 0.00 | 0.00 | 0.00 | 39 | 1008.0 |
| 20260501213206 | 96 | 240 | 5.2 | 10.4 | 0.00 | 0.00 | 0.00 | 39 | 1008.0 |
| 20260501211204 | 96 | 226 | 4.3 | 8.7 | 0.00 | 0.00 | 0.00 | 39 | 1008.0 |
| 20260501210704 | 96 | 223 | 6.1 | 8.7 | 0.00 | 0.00 | 0.00 | 39 | 1008.0 |
| 20260501210203 | 96 | 257 | 7.0 | 11.3 | 0.00 | 0.00 | 0.00 | 39 | 1008.0 |
| 20260501204704 | 96 | 239 | 4.3 | 8.7 | 0.00 | 0.00 | 0.00 | 39 | 1008.0 |
| 20260501203703 | 97 | 225 | 3.5 | 8.7 | 0.00 | 0.00 | 0.00 | 38 | 1008.0 |
| 20260501203205 | 97 | 200 | 5.2 | 11.3 | 0.00 | 0.00 | 0.00 | 38 | 1008.0 |
| 20260501201205 | 97 | 248 | 8.7 | 11.3 | 0.00 | 0.00 | 0.00 | 37 | 1009.0 |
| 20260501200704 | 97 | 231 | 4.3 | 7.8 | 0.00 | 0.00 | 0.00 | 37 | 1009.0 |
| 20260501200204 | 97 | 219 | 5.2 | 13.0 | 0.00 | 0.00 | 0.00 | 37 | 1009.0 |
| 20260501194705 | 98 | 225 | 7.8 | 13.0 | 0.00 | 0.00 | 0.00 | 37 | 1009.0 |
| 20260501194204 | 98 | 205 | 7.8 | 11.3 | 0.00 | 0.00 | 0.00 | 37 | 1009.0 |
| 20260501193705 | 98 | 210 | 7.0 | 11.3 | 0.00 | 0.00 | 0.00 | 37 | 1009.0 |
| 20260501193204 | 98 | 219 | 7.8 | 11.3 | 0.00 | 0.00 | 0.00 | 37 | 1009.0 |
| 20260501191704 | 98 | 233 | 7.0 | 10.4 | 0.00 | 0.00 | 0.00 | 38 | 1009.0 |
| 20260501191205 | 97 | 236 | 6.1 | 10.4 | 0.00 | 0.00 | 0.00 | 38 | 1010.0 |
| 20260501190705 | 98 | 236 | 6.1 | 11.3 | 0.00 | 0.00 | 0.00 | 38 | 1010.0 |
| 20260501190205 | 98 | 247 | 5.2 | 11.3 | 0.00 | 0.00 | 0.00 | 37 | 1010.0 |
| 20260501184705 | 98 | 255 | 6.1 | 8.7 | 0.00 | 0.00 | 0.00 | 38 | 1010.0 |
| 20260501183704 | 98 | 220 | 5.2 | 10.4 | 0.00 | 0.00 | 0.00 | 39 | 1010.0 |
| 20260501183204 | 98 | 255 | 7.0 | 13.0 | 0.00 | 0.00 | 0.00 | 40 | 1010.0 |
| 20260501181704 | 97 | 297 | 6.1 | 15.6 | 0.00 | 0.00 | 0.00 | 40 | 1010.0 |
| 20260501181205 | 97 | 211 | 2.6 | 7.0 | 0.00 | 0.00 | 0.00 | 39 | 1010.0 |
| 20260501180704 | 98 | 269 | 5.2 | 10.4 | 0.00 | 0.00 | 0.00 | 40 | 1010.0 |
| 20260501180203 | 98 | 231 | 8.7 | 11.3 | 0.00 | 0.00 | 0.00 | 40 | 1010.0 |
| 20260501174704 | 97 | 232 | 7.0 | 12.2 | 0.00 | 0.00 | 0.00 | 43 | 1010.0 |
| 20260501174205 | 97 | 247 | 5.2 | 11.3 | 0.00 | 0.00 | 0.00 | 42 | 1010.0 |
| 20260501173704 | 96 | 246 | 5.2 | 10.4 | 0.00 | 0.00 | 0.00 | 43 | 1010.0 |
| 20260501173205 | 96 | 274 | 7.8 | 11.3 | 0.00 | 0.00 | 0.00 | 43 | 1010.0 |
| 20260501171705 | 95 | 295 | 2.6 | 10.4 | 0.00 | 0.00 | 0.00 | 45 | 1010.0 |
| 20260501171205 | 96 | 277 | 5.2 | 11.3 | 0.00 | 0.00 | 0.00 | 45 | 1011.0 |
| 20260501170704 | 96 | 279 | 6.1 | 10.4 | 0.00 | 0.00 | 0.00 | 45 | 1011.0 |
| 20260501170203 | 95 | 290 | 4.3 | 8.7 | 0.00 | 0.00 | 0.00 | 45 | 1011.0 |
| 20260501164704 | 96 | 246 | 7.0 | 11.3 | 0.00 | 0.00 | 0.00 | 46 | 1011.0 |
| 20260501164204 | 95 | 226 | 6.1 | 10.4 | 0.00 | 0.00 | 0.00 | 45 | 1011.0 |
| 20260501163704 | 96 | 266 | 4.3 | 7.8 | 0.00 | 0.00 | 0.00 | 45 | 1011.0 |
| 20260501163204 | 96 | 242 | 3.5 | 10.4 | 0.00 | 0.00 | 0.00 | 45 | 1011.0 |
| 20260501161703 | 94 | 277 | 7.8 | 8.7 | 0.00 | 0.00 | 0.00 | 46 | 1011.0 |
| 20260501161203 | 93 | 251 | 4.3 | 7.0 | 0.00 | 0.00 | 0.00 | 46 | 1011.0 |
| 20260501160703 | 94 | 248 | 7.0 | 10.4 | 0.00 | 0.00 | 0.00 | 47 | 1011.0 |
| 20260501160204 | 93 | 272 | 7.0 | 10.4 | 0.00 | 0.00 | 0.00 | 47 | 1011.0 |
| 20260501154204 | 91 | 239 | 5.2 | 7.0 | 0.00 | 0.00 | 0.00 | 49 | 1011.0 |
| 20260501153703 | 92 | 236 | 4.3 | 7.0 | 0.00 | 0.00 | 0.00 | 51 | 1011.0 |
| 20260501153203 | 91 | 243 | 5.2 | 7.0 | 0.00 | 0.00 | 0.00 | 50 | 1011.0 |
| 20260501151703 | 91 | 207 | 5.2 | 7.0 | 0.00 | 0.00 | 0.00 | 52 | 1011.0 |
| 20260501151204 | 90 | 238 | 4.3 | 5.2 | 0.00 | 0.00 | 0.00 | 52 | 1011.0 |
| 20260501150704 | 91 | 313 | 4.3 | 7.0 | 0.00 | 0.00 | 0.00 | 52 | 1011.0 |
| 20260501150204 | 91 | 282 | 2.6 | 5.2 | 0.00 | 0.00 | 0.00 | 54 | 1011.0 |